DW4782 Asprovalta GR current weather conditions

sailwx.info

Wind from 066 at 0 knots gusting 2

Air temperature 28.3° C
Dewpoint 21.1° C

Last reported at 2014-Jul-24 13:50 UTC.
Time now 2014-Jul-24 14:38 UTC

Location: N 40°43' E 023°43'.
View on Google Maps.

See reports from other nearby stations

  
Tides and Currents Weather Stations Pressure Air Temp Water Temp Dewpoint Dewpoint Depression Visibility Wind Speed Wind Dir Waves Ship Positions
date/time (UTC)wind fromknots sea level pressurealtimeterstation pressurevisibilityair tempwater tempwave heightnotes
2014-Jul-24 13:50 066 0 gusting 2 28.3
2014-Jul-24 13:40 118 0 gusting 1 28.9
2014-Jul-24 13:30 114 0 gusting 3 28.9
2014-Jul-24 13:10 102 0 gusting 2 29.4
2014-Jul-24 13:00 122 0 gusting 1 29.4
2014-Jul-24 12:50 091 1 gusting 5 30.0
2014-Jul-24 12:20 117 1 gusting 4 30.6
2014-Jul-24 12:10 120 2 gusting 2 30.6
2014-Jul-24 12:00 096 2 gusting 4 30.6
2014-Jul-24 11:50 118 2 gusting 4 30.6
2014-Jul-24 11:40 100 2 gusting 6 30.6
2014-Jul-24 11:30 090 2 gusting 5 30.6
2014-Jul-24 11:20 108 2 gusting 5 31.1
2014-Jul-24 11:10 110 2 gusting 5 31.1
2014-Jul-24 11:00 116 1 gusting 4 30.6
2014-Jul-24 10:50 101 1 gusting 5 30.6
2014-Jul-24 10:40 110 2 gusting 5 30.6
2014-Jul-24 10:30 127 3 gusting 5 30.6
2014-Jul-24 10:10 124 2 gusting 4 30.6
2014-Jul-24 10:00 127 2 gusting 6 30.6
2014-Jul-24 09:40 122 2 gusting 6 30.6
2014-Jul-24 09:30 132 1 gusting 4 30.6
2014-Jul-24 09:10 138 2 gusting 6 30.6
2014-Jul-24 09:00 136 1 gusting 4 30.6
2014-Jul-24 08:50 116 1 gusting 4 30.0
2014-Jul-24 08:40 129 1 gusting 3 29.4
2014-Jul-24 08:30 119 2 gusting 5 29.4
2014-Jul-24 08:20 108 1 gusting 3 29.4
2014-Jul-24 08:10 127 2 gusting 5 29.4
2014-Jul-24 08:00 118 1 gusting 4 29.4
2014-Jul-24 07:50 123 2 gusting 6 29.4
2014-Jul-24 07:40 087 1 gusting 4 29.4
2014-Jul-24 07:20 169 0 gusting 1 28.9
2014-Jul-24 07:10 106 0 gusting 2 28.9
2014-Jul-24 06:30 068 1 gusting 2 27.8
2014-Jul-24 06:20 139 0 gusting 2 27.2
2014-Jul-24 06:10 193 0 gusting 2 26.7
2014-Jul-24 06:00 193 0 gusting 3 26.1
2014-Jul-24 05:50 127 25.6
2014-Jul-24 04:50 22.2
2014-Jul-24 04:40 345 0 gusting 1 21.7
2014-Jul-24 04:30 346 0 gusting 1 21.1
2014-Jul-24 04:20 345 0 gusting 1 21.1
2014-Jul-24 04:10 297 0 gusting 0 20.6
2014-Jul-24 03:50 257 0 gusting 1 20.0
2014-Jul-24 03:40 257 20.0
2014-Jul-24 03:30 257 20.0
2014-Jul-24 03:20 257 20.0
2014-Jul-24 03:10 257 20.0
2014-Jul-24 03:00 256 20.6
2014-Jul-24 02:50 255 20.6
2014-Jul-24 02:40 255 20.6
2014-Jul-24 02:30 255 20.6
2014-Jul-24 02:20 20.6
2014-Jul-24 02:10 255 0 gusting 1 20.6
2014-Jul-24 01:50 252 20.6
2014-Jul-24 01:30 20.6
2014-Jul-24 01:20 20.6
2014-Jul-24 01:10 20.6
2014-Jul-24 01:00 20.6
2014-Jul-24 00:50 051 20.6
2014-Jul-24 00:40 050 21.1
2014-Jul-24 00:20 21.1
2014-Jul-24 00:10 052 21.1
2014-Jul-24 00:00 21.1
2014-Jul-23 23:50 256 21.7
2014-Jul-23 23:40 253 21.7
2014-Jul-23 23:30 21.7
2014-Jul-23 23:10 22.2
2014-Jul-23 23:00 22.2
2014-Jul-23 22:50 22.2
2014-Jul-23 22:40 22.2
2014-Jul-23 22:30 267 22.8
2014-Jul-23 22:20 22.8
2014-Jul-23 22:10 304 22.8
2014-Jul-23 22:00 285 22.8
2014-Jul-23 21:40 257 22.8
2014-Jul-23 21:30 22.8
2014-Jul-23 21:10 261 0 gusting 0 22.8
2014-Jul-23 21:00 274 23.3
2014-Jul-23 20:50 273 23.3
2014-Jul-23 20:40 150 23.3
2014-Jul-23 20:30 23.3
2014-Jul-23 20:20 23.3
2014-Jul-23 20:10 077 23.9
2014-Jul-23 20:00 23.9
2014-Jul-23 19:50 001 23.9
2014-Jul-23 19:40 001 23.9
2014-Jul-23 19:30 23.9
2014-Jul-23 19:20 23.9
2014-Jul-23 19:10 23.9
2014-Jul-23 19:00 330 24.4
2014-Jul-23 18:50 331 0 gusting 3 24.4
2014-Jul-23 18:40 252 24.4
2014-Jul-23 18:30 254 24.4
2014-Jul-23 18:20 261 25.0
2014-Jul-23 18:10 25.0
2014-Jul-23 18:00 283 25.0
2014-Jul-23 17:50 25.6
2014-Jul-23 17:40 283 25.6
2014-Jul-23 17:30 285 0 gusting 1 25.6
2014-Jul-23 17:00 350 26.7
2014-Jul-23 16:50 261 26.7
2014-Jul-23 16:40 26.7
2014-Jul-23 16:30 193 27.2
2014-Jul-23 16:20 191 27.2
2014-Jul-23 16:10 176 27.2
2014-Jul-23 16:00 27.2
2014-Jul-23 15:40 170 27.2
2014-Jul-23 15:30 108 27.2
2014-Jul-23 15:20 27.2
2014-Jul-23 15:10 27.2
2014-Jul-23 15:00 108 27.2
2014-Jul-23 14:50 108 27.8
2014-Jul-23 14:40 108 27.8
2014-Jul-23 14:30 105 27.8
2014-Jul-23 14:20 081 28.3
2014-Jul-23 14:10 060 0 gusting 2 28.3
2014-Jul-23 14:00 060 28.3
2014-Jul-23 13:50 103 0 gusting 2 28.3
2014-Jul-23 13:30 075 1 gusting 2 28.9
2014-Jul-23 13:20 115 2 gusting 6 29.4
2014-Jul-23 13:10 113 1 gusting 3 29.4
2014-Jul-23 13:00 098 0 gusting 4 28.9
2014-Jul-23 12:40 148 1 gusting 4 28.3
2014-Jul-23 12:20 117 0 gusting 1 28.3
2014-Jul-23 12:00 134 1 gusting 2 28.3
2014-Jul-23 11:50 138 0 gusting 4 28.9
2014-Jul-23 11:40 145 0 gusting 2 28.3
2014-Jul-23 11:30 129 1 gusting 2 28.3
2014-Jul-23 11:10 137 1 gusting 2 28.3
2014-Jul-23 11:00 143 2 gusting 5 28.9
2014-Jul-23 10:50 116 2 gusting 6 29.4
2014-Jul-23 10:30 148 2 gusting 6 29.4
2014-Jul-23 10:10 155 1 gusting 3 30.0
2014-Jul-23 10:00 136 2 gusting 7 30.0
2014-Jul-23 09:50 138 1 gusting 6 30.0
2014-Jul-23 09:40 149 2 gusting 5 30.0
2014-Jul-23 09:30 131 2 gusting 6 30.0
2014-Jul-23 09:20 096 1 gusting 5 29.4
2014-Jul-23 09:10 109 1 gusting 4 29.4
2014-Jul-23 09:00 116 2 gusting 5 29.4
2014-Jul-23 08:50 123 1 gusting 5 29.4
2014-Jul-23 08:40 130 2 gusting 4 28.9
2014-Jul-23 08:30 118 1 gusting 5 28.3
2014-Jul-23 08:20 134 1 gusting 1 28.3
2014-Jul-23 08:10 097 1 gusting 4 27.8
2014-Jul-23 08:00 144 0 gusting 3 27.8
2014-Jul-23 07:50 100 0 gusting 0 27.8
2014-Jul-23 07:30 159 27.2
2014-Jul-23 07:20 103 0 gusting 1 27.2
2014-Jul-23 07:10 109 0 gusting 2 26.7
2014-Jul-23 07:00 179 26.7
2014-Jul-23 06:50 138 26.7
2014-Jul-23 06:40 139 0 gusting 0 26.7
2014-Jul-23 06:30 135 26.7
2014-Jul-23 06:20 136 26.1
2014-Jul-23 06:10 135 26.1
2014-Jul-23 06:00 154 25.6
2014-Jul-23 05:50 189 25.0
2014-Jul-23 05:40 188 0 gusting 1 24.4
2014-Jul-23 05:20 23.3
2014-Jul-23 05:10 260 0 gusting 1 23.3
2014-Jul-23 05:00 261 22.8
2014-Jul-23 04:50 22.2
2014-Jul-23 04:40 22.2
2014-Jul-23 04:30 21.7
2014-Jul-23 04:20 261 21.7
2014-Jul-23 04:10 259 0 gusting 2 21.7
2014-Jul-23 04:00 270 21.7
2014-Jul-23 03:50 21.7
2014-Jul-23 03:40 21.1
2014-Jul-23 03:30 270 0 gusting 1 21.1
2014-Jul-23 03:20 285 21.7
2014-Jul-23 03:10 295 0 gusting 0 21.7
2014-Jul-23 02:50 253 0 gusting 0 21.7
2014-Jul-23 02:40 250 1 gusting 1 21.7
2014-Jul-23 02:30 249 1 gusting 3 21.7
2014-Jul-23 02:20 270 21.7
2014-Jul-23 02:10 21.7
2014-Jul-23 02:00 21.7
2014-Jul-23 01:50 21.7
2014-Jul-23 01:40 22.2
2014-Jul-23 01:30 22.2
2014-Jul-23 01:20 21.7
2014-Jul-23 01:10 273 0 gusting 0 21.7
2014-Jul-23 00:50 253 0 gusting 2 21.7
2014-Jul-23 00:40 249 0 gusting 3 21.7
2014-Jul-23 00:30 261 22.2
2014-Jul-23 00:10 243 0 gusting 3 22.2
2014-Jul-23 00:00 22.2
2014-Jul-22 23:50 245 1 gusting 2 22.2
2014-Jul-22 23:40 248 0 gusting 3 22.2
2014-Jul-22 23:30 258 0 gusting 2 22.2
2014-Jul-22 23:20 255 22.8
2014-Jul-22 23:10 22.8
2014-Jul-22 23:00 22.8
2014-Jul-22 22:50 254 0 gusting 1 22.8
2014-Jul-22 22:40 248 0 gusting 2 22.8
2014-Jul-22 22:10 275 23.9
2014-Jul-22 22:00 307 23.9
2014-Jul-22 21:50 24.4
2014-Jul-22 21:40 24.4
2014-Jul-22 21:30 24.4
2014-Jul-22 21:20 327 24.4
2014-Jul-22 21:10 213 24.4
2014-Jul-22 21:00 25.0
2014-Jul-22 20:50 044 25.0
2014-Jul-22 20:40 25.6
2014-Jul-22 20:30 043 25.6
2014-Jul-22 20:20 25.6
2014-Jul-22 20:00 033 25.6
2014-Jul-22 19:50 256 0 gusting 0 25.6
2014-Jul-22 19:40 26.1
2014-Jul-22 19:30 257 1 gusting 2 26.1
2014-Jul-22 19:20 278 26.1
2014-Jul-22 19:10 301 26.7
2014-Jul-22 19:00 302 26.7
2014-Jul-22 18:50 26.7
2014-Jul-22 18:40 302 0 gusting 0 26.7
2014-Jul-22 18:30 297 1 gusting 3 26.7
2014-Jul-22 18:10 247 0 gusting 2 26.7
2014-Jul-22 17:40 217 0 gusting 2 27.8
2014-Jul-22 17:30 053 0 gusting 1 27.8
2014-Jul-22 17:20 27.8
2014-Jul-22 17:10 055 28.3
2014-Jul-22 17:00 055 0 gusting 1 28.3
2014-Jul-22 16:40 020 28.9
2014-Jul-22 16:30 086 29.4
2014-Jul-22 16:20 042 0 gusting 0 29.4
2014-Jul-22 16:10 036 0 gusting 2 30.0
2014-Jul-22 16:00 128 0 gusting 2 30.6
2014-Jul-22 15:40 100 0 gusting 0 30.6
2014-Jul-22 15:30 087 0 gusting 4 30.6
2014-Jul-22 15:20 117 0 gusting 3 30.6
2014-Jul-22 15:10 046 1 gusting 4 30.6
2014-Jul-22 14:50 048 1 gusting 5 31.1
2014-Jul-22 14:40 075 1 gusting 4 31.7
2014-Jul-22 14:30 075 1 gusting 2 31.7
2014-Jul-22 14:20 070 1 gusting 4 32.2
2014-Jul-22 14:10 036 1 gusting 5 31.7
2014-Jul-22 14:00 084 1 gusting 6 31.7